Time,TemperatureF,DewpointF,PressureIn,WindDirection,WindDirectionDegrees,WindSpeedMPH,WindSpeedGustMPH,Humidity,HourlyPrecipIn,Conditions,Clouds,dailyrainin,SoftwareType,DateUTC
2013-03-19 00:00:00,33.2,29.6,28.63,WSW,255,10.5,16.7,86,0.00,,,0.09,proprietary,2013-03-19 04:00:00,
2013-03-19 00:01:00,33.2,29.6,28.63,West,259,4.9,9.2,86,0.00,,,0.09,proprietary,2013-03-19 04:01:00,
2013-03-19 00:03:00,33.2,29.6,28.63,WSW,252,5.7,10.5,86,0.00,,,0.09,proprietary,2013-03-19 04:03:00,
2013-03-19 00:07:00,33.2,29.7,28.63,SW,230,5.4,6.5,86,0.00,,,0.00,proprietary,2013-03-19 04:07:00,
2013-03-19 00:12:00,33.2,29.7,28.63,WSW,244,6.6,9.8,87,0.00,,,0.00,proprietary,2013-03-19 04:12:00,
2013-03-19 00:18:00,33.1,29.8,28.62,WSW,241,4.2,5.8,87,0.00,,,0.00,proprietary,2013-03-19 04:18:00,
2013-03-19 00:23:00,33.1,29.9,28.62,SW,226,4.9,6.9,87,0.00,,,0.00,proprietary,2013-03-19 04:23:00,
2013-03-19 00:28:00,33.0,29.9,28.62,SW,235,5.8,7.9,88,0.00,,,0.00,proprietary,2013-03-19 04:28:00,
2013-03-19 00:34:00,33.0,30.0,28.62,WSW,245,3.9,7.1,88,0.00,,,0.00,proprietary,2013-03-19 04:34:00,
2013-03-19 00:39:00,33.0,30.0,28.62,SW,224,3.2,5.2,88,0.00,,,0.00,proprietary,2013-03-19 04:39:00,
2013-03-19 00:44:00,33.0,30.0,28.62,SSW,204,4.4,5.7,88,0.00,,,0.00,proprietary,2013-03-19 04:44:00,
2013-03-19 00:49:00,33.0,30.0,28.62,SW,218,3.8,5.6,88,0.00,,,0.00,proprietary,2013-03-19 04:49:00,
2013-03-19 00:54:00,33.0,30.0,28.62,SW,222,4.5,6.4,88,0.00,,,0.00,proprietary,2013-03-19 04:54:00,
2013-03-19 00:59:00,33.0,30.0,28.61,SW,220,4.1,5.4,88,0.00,,,0.00,proprietary,2013-03-19 04:59:00,
2013-03-19 01:05:00,33.0,30.1,28.61,SSW,206,5.6,6.7,88,0.00,,,0.00,proprietary,2013-03-19 05:05:00,
2013-03-19 01:10:00,33.0,30.1,28.61,SSW,209,3.3,4.9,89,0.00,,,0.00,proprietary,2013-03-19 05:10:00,
2013-03-19 01:15:00,32.9,30.2,28.61,SW,215,6.7,10.0,89,0.00,,,0.00,proprietary,2013-03-19 05:15:00,
2013-03-19 01:20:00,32.8,30.3,28.61,SW,230,4.1,5.7,90,0.00,,,0.00,proprietary,2013-03-19 05:20:00,
2013-03-19 01:25:00,32.7,30.3,28.61,SW,223,6.2,7.3,90,0.00,,,0.00,proprietary,2013-03-19 05:25:00,
2013-03-19 01:30:00,32.7,30.4,28.61,SW,217,4.5,7.3,91,0.00,,,0.00,proprietary,2013-03-19 05:30:00,
2013-03-19 01:35:00,32.8,30.4,28.61,SW,214,7.4,9.7,90,0.00,,,0.00,proprietary,2013-03-19 05:35:00,
2013-03-19 01:40:00,32.8,30.4,28.61,WSW,256,3.9,5.8,90,0.00,,,0.00,proprietary,2013-03-19 05:40:00,
2013-03-19 01:46:00,32.5,29.8,28.61,WSW,243,8.9,11.0,89,0.00,,,0.00,proprietary,2013-03-19 05:46:00,
2013-03-19 01:52:00,31.6,28.6,28.62,WSW,256,7.9,12.4,88,0.01,,,0.01,proprietary,2013-03-19 05:52:00,
2013-03-19 01:57:00,31.0,27.7,28.62,WNW,285,9.5,13.1,87,0.01,,,0.01,proprietary,2013-03-19 05:57:00,
2013-03-19 02:02:00,30.7,26.7,28.62,WSW,255,5.7,11.9,84,0.01,,,0.01,proprietary,2013-03-19 06:02:00,
2013-03-19 02:07:00,30.6,26.3,28.62,SW,234,7.9,14.4,83,0.01,,,0.01,proprietary,2013-03-19 06:07:00,
2013-03-19 02:12:00,30.6,26.0,28.62,WSW,239,7.4,14.1,82,0.01,,,0.01,proprietary,2013-03-19 06:12:00,
2013-03-19 02:18:00,30.4,25.6,28.63,WSW,253,7.5,9.1,82,0.01,,,0.01,proprietary,2013-03-19 06:18:00,
2013-03-19 02:23:00,30.1,25.0,28.63,WSW,240,4.9,7.2,80,0.01,,,0.01,proprietary,2013-03-19 06:23:00,
2013-03-19 02:28:00,29.8,24.3,28.64,West,271,7.6,13.4,79,0.01,,,0.01,proprietary,2013-03-19 06:28:00,
2013-03-19 02:33:00,29.6,23.9,28.64,WSW,249,9.2,14.3,78,0.01,,,0.01,proprietary,2013-03-19 06:33:00,
2013-03-19 02:38:00,29.4,23.2,28.64,West,260,9.9,14.8,77,0.01,,,0.01,proprietary,2013-03-19 06:38:00,
2013-03-19 02:43:00,29.2,23.0,28.64,West,259,6.1,9.9,77,0.01,,,0.01,proprietary,2013-03-19 06:43:00,
2013-03-19 02:48:00,29.0,23.0,28.64,SW,232,9.1,13.6,77,0.00,,,0.01,proprietary,2013-03-19 06:48:00,
2013-03-19 02:53:00,28.7,22.7,28.64,WSW,251,9.5,13.0,78,0.00,,,0.01,proprietary,2013-03-19 06:53:00,
2013-03-19 02:58:00,28.4,22.7,28.65,WSW,245,9.6,13.6,79,0.00,,,0.01,proprietary,2013-03-19 06:58:00,
2013-03-19 03:03:00,28.1,22.3,28.65,WSW,238,5.1,7.0,78,0.00,,,0.01,proprietary,2013-03-19 07:03:00,
2013-03-19 03:08:00,27.9,22.4,28.65,West,274,6.3,9.6,79,0.00,,,0.01,proprietary,2013-03-19 07:08:00,
2013-03-19 03:13:00,27.7,21.8,28.65,SW,223,6.7,10.6,78,0.00,,,0.01,proprietary,2013-03-19 07:13:00,
2013-03-19 03:18:00,27.5,21.5,28.65,WSW,240,8.4,13.4,77,0.00,,,0.01,proprietary,2013-03-19 07:18:00,
2013-03-19 03:23:00,27.3,21.3,28.66,WSW,237,10.0,14.6,77,0.00,,,0.01,proprietary,2013-03-19 07:23:00,
2013-03-19 03:28:00,27.0,21.0,28.66,WSW,253,9.8,13.5,77,0.00,,,0.01,proprietary,2013-03-19 07:28:00,
2013-03-19 03:33:00,26.7,20.4,28.66,WSW,252,6.6,9.9,76,0.00,,,0.01,proprietary,2013-03-19 07:33:00,
2013-03-19 03:38:00,26.5,20.2,28.66,SW,231,7.5,12.5,76,0.00,,,0.01,proprietary,2013-03-19 07:38:00,
2013-03-19 03:43:00,26.3,20.1,28.66,SW,233,8.3,11.4,76,0.00,,,0.01,proprietary,2013-03-19 07:43:00,
2013-03-19 03:48:00,26.1,19.7,28.66,WSW,252,10.3,14.0,76,0.00,,,0.01,proprietary,2013-03-19 07:48:00,
2013-03-19 03:53:00,26.0,19.5,28.66,SW,234,6.8,10.7,76,0.00,,,0.01,proprietary,2013-03-19 07:53:00,
2013-03-19 03:58:00,25.6,18.7,28.66,SW,236,6.0,10.1,74,0.00,,,0.01,proprietary,2013-03-19 07:58:00,
2013-03-19 04:03:00,25.2,18.1,28.67,SW,233,10.9,14.8,73,0.00,,,0.01,proprietary,2013-03-19 08:03:00,
2013-03-19 04:08:00,25.1,17.8,28.67,WSW,255,8.8,12.2,73,0.00,,,0.01,proprietary,2013-03-19 08:08:00,
2013-03-19 04:13:00,24.9,16.9,28.67,WSW,250,10.3,14.9,71,0.00,,,0.01,proprietary,2013-03-19 08:13:00,
2013-03-19 04:18:00,24.7,17.0,28.67,West,273,5.4,9.8,71,0.00,,,0.01,proprietary,2013-03-19 08:18:00,
2013-03-19 04:23:00,24.6,16.9,28.67,West,261,7.7,10.7,71,0.00,,,0.01,proprietary,2013-03-19 08:23:00,
2013-03-19 04:28:00,24.4,16.3,28.67,West,273,8.6,14.9,70,0.00,,,0.01,proprietary,2013-03-19 08:28:00,
2013-03-19 04:33:00,24.4,16.3,28.68,West,264,11.6,18.4,70,0.00,,,0.01,proprietary,2013-03-19 08:33:00,
2013-03-19 04:38:00,24.3,16.1,28.68,WSW,253,7.7,10.7,70,0.00,,,0.01,proprietary,2013-03-19 08:38:00,
2013-03-19 04:43:00,24.2,16.0,28.68,West,268,7.2,13.6,70,0.00,,,0.01,proprietary,2013-03-19 08:43:00,
2013-03-19 04:48:00,24.2,15.7,28.68,WSW,253,6.8,18.0,69,0.00,,,0.01,proprietary,2013-03-19 08:48:00,
2013-03-19 04:54:00,24.1,15.7,28.68,WSW,257,5.9,8.0,69,0.00,,,0.01,proprietary,2013-03-19 08:54:00,
2013-03-19 04:59:00,24.1,15.9,28.68,West,274,5.1,8.6,70,0.00,,,0.01,proprietary,2013-03-19 08:59:00,
2013-03-19 05:04:00,24.1,16.2,28.68,West,264,6.6,8.9,71,0.00,,,0.01,proprietary,2013-03-19 09:04:00,
2013-03-19 05:09:00,24.0,16.1,28.68,WSW,256,7.4,12.9,71,0.00,,,0.01,proprietary,2013-03-19 09:09:00,
2013-03-19 05:14:00,24.0,15.4,28.68,WSW,245,4.5,8.5,69,0.00,,,0.01,proprietary,2013-03-19 09:14:00,
2013-03-19 05:19:00,23.9,15.1,28.68,West,260,9.2,14.7,68,0.00,,,0.01,proprietary,2013-03-19 09:19:00,
2013-03-19 05:24:00,23.9,14.6,28.68,WSW,247,10.0,15.4,67,0.00,,,0.01,proprietary,2013-03-19 09:24:00,
2013-03-19 05:29:00,23.8,15.1,28.68,WSW,249,9.5,14.5,68,0.00,,,0.01,proprietary,2013-03-19 09:29:00,
2013-03-19 05:34:00,23.7,15.0,28.68,SW,235,7.5,11.4,68,0.00,,,0.01,proprietary,2013-03-19 09:34:00,
2013-03-19 05:39:00,23.6,14.8,28.68,WSW,255,4.5,5.6,68,0.00,,,0.01,proprietary,2013-03-19 09:39:00,
2013-03-19 05:44:00,23.6,14.8,28.69,WSW,239,4.7,5.9,68,0.00,,,0.01,proprietary,2013-03-19 09:44:00,
2013-03-19 05:50:00,23.5,14.8,28.69,SW,227,8.2,12.1,68,0.00,,,0.01,proprietary,2013-03-19 09:50:00,
2013-03-19 05:55:00,23.4,15.0,28.69,West,265,6.4,10.3,69,0.00,,,0.01,proprietary,2013-03-19 09:55:00,
2013-03-19 06:00:00,23.1,15.6,28.69,SW,228,2.9,5.4,72,0.00,,,0.01,proprietary,2013-03-19 10:00:00,
2013-03-19 06:05:00,23.0,16.3,28.69,SW,234,4.4,7.1,75,0.00,,,0.01,proprietary,2013-03-19 10:05:00,
2013-03-19 06:11:00,22.6,16.8,28.69,WSW,253,4.3,6.0,77,0.00,,,0.01,proprietary,2013-03-19 10:11:00,
2013-03-19 06:16:00,22.5,16.4,28.69,WSW,240,5.9,9.5,77,0.00,,,0.01,proprietary,2013-03-19 10:16:00,
2013-03-19 06:21:00,22.6,16.2,28.69,SSW,208,8.6,13.8,76,0.00,,,0.01,proprietary,2013-03-19 10:21:00,
2013-03-19 06:26:00,22.5,15.7,28.69,SW,221,3.4,5.4,74,0.00,,,0.01,proprietary,2013-03-19 10:26:00,
2013-03-19 06:31:00,22.5,15.6,28.69,SW,222,6.7,8.6,74,0.00,,,0.01,proprietary,2013-03-19 10:31:00,
2013-03-19 06:36:00,22.5,15.4,28.70,SW,226,4.7,7.4,73,0.00,,,0.01,proprietary,2013-03-19 10:36:00,
2013-03-19 06:41:00,22.3,15.6,28.70,SW,230,6.8,8.9,75,0.00,,,0.01,proprietary,2013-03-19 10:41:00,
2013-03-19 06:47:00,22.0,15.9,28.70,SW,230,7.7,10.2,77,0.00,,,0.01,proprietary,2013-03-19 10:47:00,
2013-03-19 06:52:00,21.9,15.9,28.70,WSW,239,5.8,9.1,77,0.00,,,0.01,proprietary,2013-03-19 10:52:00,
2013-03-19 06:58:00,22.0,15.9,28.71,SW,234,4.7,7.0,77,0.00,,,0.01,proprietary,2013-03-19 10:58:00,
2013-03-19 07:03:00,22.0,15.8,28.71,SW,218,5.7,7.4,76,0.00,,,0.01,proprietary,2013-03-19 11:03:00,
2013-03-19 07:08:00,22.1,16.0,28.71,SW,234,3.9,6.4,76,0.00,,,0.01,proprietary,2013-03-19 11:08:00,
2013-03-19 07:13:00,22.1,16.2,28.71,WSW,237,7.7,10.1,77,0.00,,,0.01,proprietary,2013-03-19 11:13:00,
2013-03-19 07:18:00,22.0,16.3,28.72,SSW,212,7.3,9.1,78,0.00,,,0.01,proprietary,2013-03-19 11:18:00,
2013-03-19 07:23:00,21.8,16.4,28.72,SW,236,6.2,11.2,79,0.00,,,0.01,proprietary,2013-03-19 11:23:00,
2013-03-19 07:28:00,21.8,16.3,28.72,SW,235,6.9,10.6,79,0.00,,,0.01,proprietary,2013-03-19 11:28:00,
2013-03-19 07:34:00,21.8,15.9,28.72,SSW,195,6.8,12.4,77,0.00,,,0.01,proprietary,2013-03-19 11:34:00,
2013-03-19 07:39:00,21.8,15.8,28.72,SW,223,5.9,7.6,77,0.00,,,0.01,proprietary,2013-03-19 11:39:00,
2013-03-19 07:44:00,21.6,15.9,28.72,SW,229,6.9,8.8,78,0.00,,,0.01,proprietary,2013-03-19 11:44:00,
2013-03-19 07:49:00,21.5,15.8,28.72,SW,235,4.6,6.3,78,0.00,,,0.01,proprietary,2013-03-19 11:49:00,
2013-03-19 07:55:00,21.4,15.9,28.72,SW,230,5.3,8.5,79,0.00,,,0.01,proprietary,2013-03-19 11:55:00,
2013-03-19 08:00:00,21.3,16.0,28.72,SW,226,5.8,7.7,79,0.00,,,0.01,proprietary,2013-03-19 12:00:00,
2013-03-19 08:05:00,21.2,15.6,28.72,WSW,237,6.7,9.5,78,0.00,,,0.01,proprietary,2013-03-19 12:05:00,
2013-03-19 08:10:00,21.1,15.4,28.72,SW,234,6.6,10.4,78,0.00,,,0.01,proprietary,2013-03-19 12:10:00,
2013-03-19 08:15:00,21.0,15.1,28.73,SW,225,7.0,11.7,77,0.00,,,0.01,proprietary,2013-03-19 12:15:00,
2013-03-19 08:21:00,20.9,15.2,28.72,SSW,205,7.6,11.3,78,0.00,,,0.01,proprietary,2013-03-19 12:21:00,
2013-03-19 08:27:00,20.9,15.3,28.73,SW,226,3.7,5.1,78,0.00,,,0.01,proprietary,2013-03-19 12:27:00,
2013-03-19 08:32:00,20.8,15.5,28.73,WSW,237,5.9,9.8,79,0.00,,,0.01,proprietary,2013-03-19 12:32:00,
2013-03-19 08:38:00,20.8,15.1,28.73,SW,224,5.1,6.8,78,0.00,,,0.01,proprietary,2013-03-19 12:38:00,
2013-03-19 08:43:00,20.9,15.1,28.73,SW,223,5.7,8.0,77,0.00,,,0.01,proprietary,2013-03-19 12:43:00,
2013-03-19 08:49:00,20.8,14.7,28.73,WSW,255,7.6,9.7,76,0.00,,,0.01,proprietary,2013-03-19 12:49:00,
2013-03-19 08:54:00,20.8,14.5,28.73,SW,230,8.4,16.8,76,0.00,,,0.01,proprietary,2013-03-19 12:54:00,
2013-03-19 09:00:00,20.9,14.7,28.73,WSW,249,5.3,8.8,76,0.00,,,0.01,proprietary,2013-03-19 13:00:00,
2013-03-19 09:06:00,21.0,14.3,28.73,SW,235,7.9,12.6,74,0.00,,,0.01,proprietary,2013-03-19 13:06:00,
2013-03-19 09:11:00,20.8,14.9,28.73,WSW,239,9.3,15.6,77,0.00,,,0.01,proprietary,2013-03-19 13:11:00,
2013-03-19 09:16:00,20.8,15.4,28.73,SW,234,7.7,11.8,79,0.00,,,0.01,proprietary,2013-03-19 13:16:00,
2013-03-19 09:21:00,20.9,15.5,28.72,SW,214,8.0,10.2,79,0.00,,,0.01,proprietary,2013-03-19 13:21:00,
2013-03-19 09:26:00,21.0,15.5,28.73,SW,234,8.9,12.9,78,0.00,,,0.01,proprietary,2013-03-19 13:26:00,
2013-03-19 09:31:00,21.0,15.4,28.73,SW,224,9.6,14.6,78,0.00,,,0.01,proprietary,2013-03-19 13:31:00,
2013-03-19 09:36:00,21.0,15.4,28.72,SW,231,5.1,7.2,78,0.00,,,0.01,proprietary,2013-03-19 13:36:00,
2013-03-19 09:41:00,21.2,15.3,28.72,SW,231,7.5,11.4,77,0.00,,,0.01,proprietary,2013-03-19 13:41:00,
2013-03-19 09:46:00,21.5,15.3,28.72,West,264,5.7,9.2,76,0.00,,,0.01,proprietary,2013-03-19 13:46:00,
2013-03-19 09:51:00,21.6,15.1,28.72,WSW,242,10.5,17.0,75,0.00,,,0.01,proprietary,2013-03-19 13:51:00,
2013-03-19 09:56:00,21.7,14.5,28.73,WSW,245,5.7,11.6,73,0.00,,,0.01,proprietary,2013-03-19 13:56:00,
2013-03-19 10:01:00,21.7,14.2,28.72,WSW,243,7.9,11.0,72,0.00,,,0.01,proprietary,2013-03-19 14:01:00,
2013-03-19 10:06:00,21.9,14.4,28.73,WSW,244,9.1,16.9,72,0.00,,,0.01,proprietary,2013-03-19 14:06:00,
2013-03-19 10:11:00,22.1,13.9,28.73,WSW,248,7.1,12.9,70,0.00,,,0.01,proprietary,2013-03-19 14:11:00,
2013-03-19 10:16:00,22.6,14.4,28.73,West,263,8.6,12.1,70,0.00,,,0.01,proprietary,2013-03-19 14:16:00,
2013-03-19 10:21:00,22.7,14.5,28.73,WSW,242,7.9,10.5,70,0.00,,,0.01,proprietary,2013-03-19 14:21:00,
2013-03-19 10:26:00,22.5,14.5,28.73,WSW,237,6.9,10.4,71,0.00,,,0.01,proprietary,2013-03-19 14:26:00,
2013-03-19 10:31:00,22.3,14.6,28.73,SW,220,4.6,5.9,71,0.00,,,0.01,proprietary,2013-03-19 14:31:00,
2013-03-19 10:36:00,22.1,14.7,28.73,WSW,246,6.6,8.9,72,0.00,,,0.01,proprietary,2013-03-19 14:36:00,
2013-03-19 10:41:00,22.1,14.6,28.73,WSW,257,7.0,14.5,72,0.00,,,0.01,proprietary,2013-03-19 14:41:00,
2013-03-19 10:46:00,22.1,14.6,28.74,WSW,239,8.6,17.5,72,0.00,,,0.01,proprietary,2013-03-19 14:46:00,
2013-03-19 10:51:00,21.6,14.7,28.74,SW,224,8.1,10.6,74,0.00,,,0.01,proprietary,2013-03-19 14:51:00,
2013-03-19 10:56:00,21.9,15.2,28.74,WSW,238,6.2,9.9,74,0.00,,,0.01,proprietary,2013-03-19 14:56:00,
2013-03-19 11:01:00,21.9,15.0,28.74,SW,236,8.7,11.8,74,0.00,,,0.01,proprietary,2013-03-19 15:01:00,
2013-03-19 11:06:00,22.0,14.4,28.74,West,271,11.0,14.7,72,0.00,,,0.01,proprietary,2013-03-19 15:06:00,
2013-03-19 11:11:00,22.1,13.8,28.74,WSW,255,11.2,17.1,69,0.00,,,0.01,proprietary,2013-03-19 15:11:00,
2013-03-19 11:16:00,22.5,14.6,28.74,WSW,239,10.3,14.0,71,0.00,,,0.01,proprietary,2013-03-19 15:16:00,
2013-03-19 11:21:00,22.7,14.4,28.74,SW,236,10.7,14.6,69,0.00,,,0.01,proprietary,2013-03-19 15:21:00,
2013-03-19 11:26:00,23.0,14.7,28.74,West,263,5.8,8.9,70,0.00,,,0.01,proprietary,2013-03-19 15:26:00,
2013-03-19 11:32:00,23.0,14.2,28.75,WSW,249,5.9,12.0,68,0.00,,,0.01,proprietary,2013-03-19 15:32:00,
2013-03-19 11:37:00,22.8,14.1,28.75,West,264,6.4,9.4,68,0.00,,,0.01,proprietary,2013-03-19 15:37:00,
2013-03-19 11:42:00,23.3,15.3,28.75,WSW,244,6.0,9.5,71,0.00,,,0.01,proprietary,2013-03-19 15:42:00,
2013-03-19 11:48:00,23.2,14.9,28.75,WSW,252,8.7,15.3,70,0.00,,,0.01,proprietary,2013-03-19 15:48:00,
2013-03-19 11:53:00,23.1,14.1,28.75,West,270,10.4,19.8,68,0.00,,,0.01,proprietary,2013-03-19 15:53:00,
2013-03-19 11:59:00,23.0,14.0,28.75,West,274,8.2,11.6,67,0.00,,,0.01,proprietary,2013-03-19 15:59:00,
2013-03-19 12:04:00,22.8,14.1,28.76,West,266,4.7,7.6,68,0.00,,,0.01,proprietary,2013-03-19 16:04:00,
2013-03-19 12:09:00,23.1,14.5,28.76,WSW,244,9.2,16.9,69,0.00,,,0.01,proprietary,2013-03-19 16:09:00,
2013-03-19 12:14:00,23.1,14.4,28.76,WSW,246,8.2,18.3,68,0.00,,,0.01,proprietary,2013-03-19 16:14:00,
2013-03-19 12:20:00,22.8,14.4,28.76,WSW,248,6.7,11.8,69,0.00,,,0.01,proprietary,2013-03-19 16:20:00,
2013-03-19 12:25:00,22.9,13.8,28.76,WSW,237,11.2,20.4,67,0.00,,,0.01,proprietary,2013-03-19 16:25:00,
2013-03-19 12:30:00,23.1,14.8,28.77,WSW,246,8.0,12.7,70,0.00,,,0.01,proprietary,2013-03-19 16:30:00,
2013-03-19 12:35:00,23.0,15.1,28.77,WSW,238,8.2,13.7,71,0.00,,,0.01,proprietary,2013-03-19 16:35:00,
2013-03-19 12:40:00,23.0,14.3,28.77,WSW,253,9.2,16.4,68,0.00,,,0.01,proprietary,2013-03-19 16:40:00,
2013-03-19 12:45:00,23.4,15.1,28.77,West,267,5.0,8.6,70,0.00,,,0.01,proprietary,2013-03-19 16:45:00,
2013-03-19 12:50:00,23.2,15.0,28.77,WSW,249,12.4,16.1,70,0.00,,,0.01,proprietary,2013-03-19 16:50:00,
2013-03-19 12:55:00,23.5,14.8,28.77,West,271,4.3,10.0,68,0.00,,,0.01,proprietary,2013-03-19 16:55:00,
2013-03-19 13:00:00,23.2,14.9,28.77,WSW,250,7.6,11.8,70,0.00,,,0.01,proprietary,2013-03-19 17:00:00,
2013-03-19 13:06:00,23.5,16.2,28.77,WSW,247,8.9,12.8,73,0.00,,,0.01,proprietary,2013-03-19 17:06:00,
2013-03-19 13:11:00,23.3,15.8,28.78,West,271,8.0,11.6,72,0.00,,,0.01,proprietary,2013-03-19 17:11:00,
2013-03-19 13:16:00,23.3,16.0,28.78,WSW,237,8.0,12.5,72,0.00,,,0.01,proprietary,2013-03-19 17:16:00,
2013-03-19 13:22:00,23.3,16.0,28.78,WSW,255,7.2,10.7,73,0.00,,,0.01,proprietary,2013-03-19 17:22:00,
2013-03-19 13:27:00,23.2,15.7,28.78,SW,236,9.4,11.4,72,0.00,,,0.01,proprietary,2013-03-19 17:27:00,
2013-03-19 13:32:00,23.2,16.2,28.78,WSW,251,9.3,13.2,74,0.00,,,0.01,proprietary,2013-03-19 17:32:00,
2013-03-19 13:37:00,23.0,15.5,28.79,WSW,239,7.0,9.5,72,0.00,,,0.01,proprietary,2013-03-19 17:37:00,
2013-03-19 13:42:00,23.2,15.5,28.79,WSW,256,9.8,14.9,71,0.00,,,0.01,proprietary,2013-03-19 17:42:00,
2013-03-19 13:47:00,23.0,15.4,28.79,WSW,254,10.1,15.0,72,0.00,,,0.01,proprietary,2013-03-19 17:47:00,
2013-03-19 13:52:00,22.8,14.1,28.79,West,259,11.0,17.1,68,0.00,,,0.01,proprietary,2013-03-19 17:52:00,
2013-03-19 13:57:00,22.9,14.6,28.79,West,265,7.4,11.3,69,0.00,,,0.01,proprietary,2013-03-19 17:57:00,
2013-03-19 14:02:00,23.1,14.2,28.79,West,265,10.1,13.6,68,0.00,,,0.01,proprietary,2013-03-19 18:02:00,
2013-03-19 14:08:00,23.4,14.7,28.80,SW,217,5.5,9.4,68,0.00,,,0.01,proprietary,2013-03-19 18:08:00,
2013-03-19 14:13:00,23.4,15.0,28.80,SW,228,7.7,10.6,69,0.00,,,0.01,proprietary,2013-03-19 18:13:00,
2013-03-19 14:18:00,23.3,14.2,28.80,WSW,246,11.2,13.2,67,0.00,,,0.01,proprietary,2013-03-19 18:18:00,
2013-03-19 14:24:00,23.5,13.8,28.80,WNW,283,6.3,9.2,65,0.00,,,0.01,proprietary,2013-03-19 18:24:00,
2013-03-19 14:29:00,23.1,14.1,28.80,WSW,247,9.4,14.5,67,0.00,,,0.01,proprietary,2013-03-19 18:29:00,
2013-03-19 14:34:00,23.2,14.9,28.80,SW,236,6.9,9.4,69,0.00,,,0.01,proprietary,2013-03-19 18:34:00,
2013-03-19 14:39:00,23.1,14.7,28.80,West,266,7.2,11.4,69,0.00,,,0.01,proprietary,2013-03-19 18:39:00,
2013-03-19 14:44:00,23.3,14.5,28.80,WSW,248,9.5,14.1,68,0.00,,,0.01,proprietary,2013-03-19 18:44:00,
2013-03-19 14:49:00,23.2,14.4,28.81,WSW,253,6.4,10.7,68,0.00,,,0.01,proprietary,2013-03-19 18:49:00,
2013-03-19 14:54:00,23.3,14.5,28.80,WSW,239,9.8,14.2,68,0.00,,,0.01,proprietary,2013-03-19 18:54:00,
2013-03-19 15:00:00,23.4,14.3,28.81,WSW,240,9.0,14.2,67,0.00,,,0.01,proprietary,2013-03-19 19:00:00,
2013-03-19 15:05:00,23.2,14.1,28.81,West,274,9.3,14.7,67,0.00,,,0.01,proprietary,2013-03-19 19:05:00,
2013-03-19 15:10:00,23.2,14.2,28.81,WSW,254,10.7,20.4,68,0.00,,,0.01,proprietary,2013-03-19 19:10:00,
2013-03-19 15:16:00,23.5,14.4,28.81,West,259,11.1,14.8,67,0.00,,,0.01,proprietary,2013-03-19 19:16:00,
2013-03-19 15:21:00,23.6,14.3,28.81,West,271,6.9,11.7,66,0.00,,,0.01,proprietary,2013-03-19 19:21:00,
2013-03-19 15:26:00,24.0,15.1,28.81,SW,236,5.9,9.5,68,0.00,,,0.01,proprietary,2013-03-19 19:26:00,
2013-03-19 15:31:00,24.2,15.4,28.81,SW,236,6.6,9.2,68,0.00,,,0.01,proprietary,2013-03-19 19:31:00,
2013-03-19 15:36:00,24.4,15.9,28.81,SW,223,10.2,16.8,69,0.00,,,0.01,proprietary,2013-03-19 19:36:00,
2013-03-19 15:42:00,24.4,15.8,28.81,WSW,256,12.3,20.3,69,0.00,,,0.01,proprietary,2013-03-19 19:42:00,
2013-03-19 15:47:00,24.4,15.6,28.82,WSW,257,11.0,16.6,68,0.00,,,0.01,proprietary,2013-03-19 19:47:00,
2013-03-19 15:53:00,24.5,16.9,28.82,WSW,239,6.2,8.9,72,0.00,,,0.01,proprietary,2013-03-19 19:53:00,
2013-03-19 15:59:00,25.0,16.6,28.82,SW,236,9.3,15.0,70,0.00,,,0.01,proprietary,2013-03-19 19:59:00,
2013-03-19 16:04:00,24.7,16.6,28.82,West,271,7.9,10.8,70,0.00,,,0.01,proprietary,2013-03-19 20:04:00,
2013-03-19 16:09:00,24.8,15.9,28.82,West,261,9.2,19.1,68,0.00,,,0.01,proprietary,2013-03-19 20:09:00,
2013-03-19 16:15:00,24.6,16.2,28.82,West,273,8.8,16.0,69,0.00,,,0.01,proprietary,2013-03-19 20:15:00,
2013-03-19 16:20:00,24.9,16.5,28.82,West,260,8.0,12.5,70,0.00,,,0.01,proprietary,2013-03-19 20:20:00,
2013-03-19 16:25:00,25.1,16.6,28.82,WSW,245,6.6,11.3,69,0.00,,,0.01,proprietary,2013-03-19 20:25:00,
2013-03-19 16:30:00,25.2,16.8,28.82,SW,236,9.6,13.3,69,0.00,,,0.01,proprietary,2013-03-19 20:30:00,
2013-03-19 16:36:00,24.9,16.6,28.83,WNW,283,6.7,8.3,70,0.00,,,0.01,proprietary,2013-03-19 20:36:00,
2013-03-19 16:41:00,24.9,16.5,28.83,West,261,6.5,10.7,69,0.00,,,0.01,proprietary,2013-03-19 20:41:00,
2013-03-19 16:47:00,24.9,16.2,28.83,West,275,8.5,13.3,68,0.00,,,0.01,proprietary,2013-03-19 20:47:00,
2013-03-19 16:52:00,25.1,16.2,28.83,WSW,241,6.7,10.9,68,0.00,,,0.01,proprietary,2013-03-19 20:52:00,
2013-03-19 16:57:00,25.4,16.4,28.83,WSW,246,12.2,20.2,68,0.00,,,0.01,proprietary,2013-03-19 20:57:00,
2013-03-19 17:02:00,25.6,16.5,28.83,WSW,254,5.4,7.6,67,0.00,,,0.01,proprietary,2013-03-19 21:02:00,
2013-03-19 17:07:00,25.8,16.5,28.83,West,275,3.5,5.0,67,0.00,,,0.01,proprietary,2013-03-19 21:07:00,
2013-03-19 17:12:00,25.6,16.3,28.83,West,264,7.3,12.3,67,0.00,,,0.01,proprietary,2013-03-19 21:12:00,
2013-03-19 17:17:00,25.6,16.6,28.84,West,275,8.7,11.3,68,0.00,,,0.01,proprietary,2013-03-19 21:17:00,
2013-03-19 17:22:00,25.8,16.9,28.84,WSW,240,6.1,8.7,68,0.00,,,0.01,proprietary,2013-03-19 21:22:00,
2013-03-19 17:28:00,25.8,16.7,28.84,West,275,8.5,12.3,67,0.00,,,0.01,proprietary,2013-03-19 21:28:00,
2013-03-19 17:33:00,25.8,17.0,28.84,WSW,257,8.9,14.8,69,0.00,,,0.01,proprietary,2013-03-19 21:33:00,
2013-03-19 17:38:00,25.7,17.0,28.84,West,271,7.9,13.9,68,0.00,,,0.01,proprietary,2013-03-19 21:38:00,
2013-03-19 17:44:00,25.9,17.1,28.84,WSW,247,7.3,9.6,68,0.00,,,0.01,proprietary,2013-03-19 21:44:00,
2013-03-19 17:50:00,26.1,16.6,28.84,West,263,11.0,19.1,66,0.00,,,0.01,proprietary,2013-03-19 21:50:00,
2013-03-19 17:56:00,26.3,17.0,28.85,West,267,5.7,9.5,67,0.00,,,0.01,proprietary,2013-03-19 21:56:00,
2013-03-19 18:02:00,26.4,16.4,28.85,West,278,6.3,11.3,65,0.00,,,0.01,proprietary,2013-03-19 22:02:00,
2013-03-19 18:07:00,26.5,16.3,28.85,WNW,292,6.7,12.4,65,0.00,,,0.01,proprietary,2013-03-19 22:07:00,
2013-03-19 18:12:00,26.4,16.5,28.85,West,281,7.6,10.1,65,0.00,,,0.01,proprietary,2013-03-19 22:12:00,
2013-03-19 18:18:00,26.5,16.5,28.85,West,266,8.2,11.1,65,0.00,,,0.01,proprietary,2013-03-19 22:18:00,
2013-03-19 18:23:00,26.4,16.1,28.86,WSW,256,8.0,13.5,64,0.00,,,0.01,proprietary,2013-03-19 22:23:00,
2013-03-19 18:29:00,26.4,16.3,28.86,West,280,8.8,12.9,64,0.00,,,0.01,proprietary,2013-03-19 22:29:00,
2013-03-19 18:35:00,26.4,15.9,28.86,WNW,283,6.9,11.8,64,0.00,,,0.01,proprietary,2013-03-19 22:35:00,
2013-03-19 18:40:00,26.4,16.0,28.87,West,276,9.2,13.6,64,0.00,,,0.01,proprietary,2013-03-19 22:40:00,
2013-03-19 18:46:00,26.5,16.4,28.87,West,261,8.7,10.9,65,0.00,,,0.01,proprietary,2013-03-19 22:46:00,
2013-03-19 18:51:00,26.5,16.7,28.87,WSW,249,8.4,13.6,65,0.00,,,0.01,proprietary,2013-03-19 22:51:00,
2013-03-19 18:56:00,26.5,16.4,28.87,WNW,288,6.2,11.9,65,0.00,,,0.01,proprietary,2013-03-19 22:56:00,
2013-03-19 19:01:00,26.4,16.3,28.87,West,274,6.8,9.1,65,0.00,,,0.01,proprietary,2013-03-19 23:01:00,
2013-03-19 19:06:00,26.4,16.3,28.87,WNW,292,5.7,9.8,64,0.00,,,0.01,proprietary,2013-03-19 23:06:00,
2013-03-19 19:11:00,26.4,16.4,28.87,West,272,7.5,12.9,65,0.00,,,0.01,proprietary,2013-03-19 23:11:00,
2013-03-19 19:16:00,26.5,16.3,28.88,West,276,6.5,10.4,64,0.00,,,0.01,proprietary,2013-03-19 23:16:00,
2013-03-19 19:21:00,26.5,16.3,28.87,West,260,4.8,7.2,64,0.00,,,0.01,proprietary,2013-03-19 23:21:00,
2013-03-19 19:26:00,26.5,16.5,28.88,WSW,253,7.2,8.9,65,0.00,,,0.01,proprietary,2013-03-19 23:26:00,
2013-03-19 19:31:00,26.5,15.9,28.88,West,276,8.8,14.2,63,0.00,,,0.01,proprietary,2013-03-19 23:31:00,
2013-03-19 19:36:00,26.5,16.1,28.88,West,267,7.1,11.3,64,0.00,,,0.01,proprietary,2013-03-19 23:36:00,
2013-03-19 19:41:00,26.5,16.2,28.88,West,261,8.0,14.7,64,0.00,,,0.01,proprietary,2013-03-19 23:41:00,
2013-03-19 19:46:00,26.2,16.2,28.88,WSW,257,4.6,5.4,65,0.00,,,0.01,proprietary,2013-03-19 23:46:00,
2013-03-19 19:51:00,26.1,16.1,28.88,WSW,241,7.0,8.5,65,0.00,,,0.01,proprietary,2013-03-19 23:51:00,
2013-03-19 19:56:00,25.9,16.3,28.88,WSW,253,4.6,9.2,66,0.00,,,0.01,proprietary,2013-03-19 23:56:00,
2013-03-19 20:01:00,25.9,16.1,28.88,WSW,255,4.3,6.4,66,0.00,,,0.01,proprietary,2013-03-20 00:01:00,
2013-03-19 20:06:00,25.8,16.2,28.88,West,274,8.2,16.1,66,0.00,,,0.01,proprietary,2013-03-20 00:06:00,
2013-03-19 20:11:00,25.8,16.2,28.88,West,269,4.9,8.6,66,0.00,,,0.01,proprietary,2013-03-20 00:11:00,
2013-03-19 20:16:00,25.9,16.2,28.89,West,260,9.5,14.5,66,0.00,,,0.01,proprietary,2013-03-20 00:16:00,
2013-03-19 20:21:00,25.9,16.2,28.89,West,280,3.8,6.1,66,0.00,,,0.01,proprietary,2013-03-20 00:21:00,
2013-03-19 20:27:00,26.1,16.4,28.89,West,267,6.2,7.9,66,0.00,,,0.01,proprietary,2013-03-20 00:27:00,
2013-03-19 20:32:00,26.4,16.2,28.89,West,269,6.6,10.2,64,0.00,,,0.01,proprietary,2013-03-20 00:32:00,
2013-03-19 20:38:00,26.5,15.9,28.89,West,264,5.7,9.8,63,0.00,,,0.01,proprietary,2013-03-20 00:38:00,
2013-03-19 20:43:00,26.7,15.7,28.89,West,279,2.7,4.8,62,0.00,,,0.01,proprietary,2013-03-20 00:43:00,
2013-03-19 20:48:00,26.7,15.6,28.89,WNW,296,7.5,9.9,62,0.00,,,0.01,proprietary,2013-03-20 00:48:00,
2013-03-19 20:53:00,26.7,15.6,28.90,WSW,258,6.9,11.6,62,0.00,,,0.01,proprietary,2013-03-20 00:53:00,
2013-03-19 20:58:00,26.5,15.3,28.90,West,270,10.0,12.9,62,0.00,,,0.01,proprietary,2013-03-20 00:58:00,
2013-03-19 21:03:00,26.4,15.0,28.90,West,271,6.6,9.3,61,0.00,,,0.01,proprietary,2013-03-20 01:03:00,
2013-03-19 21:08:00,26.4,15.1,28.90,WSW,257,11.0,13.9,61,0.00,,,0.01,proprietary,2013-03-20 01:08:00,
2013-03-19 21:13:00,26.2,15.1,28.90,West,262,9.2,15.1,62,0.00,,,0.01,proprietary,2013-03-20 01:13:00,
2013-03-19 21:18:00,26.2,14.7,28.90,West,271,7.0,10.1,61,0.00,,,0.01,proprietary,2013-03-20 01:18:00,
2013-03-19 21:24:00,26.0,14.8,28.90,WSW,255,6.6,8.9,62,0.00,,,0.01,proprietary,2013-03-20 01:24:00,
2013-03-19 21:29:00,26.0,14.7,28.91,West,278,7.7,13.4,61,0.00,,,0.01,proprietary,2013-03-20 01:29:00,
2013-03-19 21:34:00,26.0,14.5,28.91,West,269,14.3,19.7,61,0.00,,,0.01,proprietary,2013-03-20 01:34:00,
2013-03-19 21:40:00,25.9,14.5,28.91,West,263,6.4,9.6,61,0.00,,,0.01,proprietary,2013-03-20 01:40:00,
2013-03-19 21:45:00,26.1,14.2,28.91,WNW,292,8.8,12.4,60,0.00,,,0.01,proprietary,2013-03-20 01:45:00,
2013-03-19 21:51:00,26.0,14.2,28.91,West,278,7.4,14.4,60,0.00,,,0.01,proprietary,2013-03-20 01:51:00,
2013-03-19 21:56:00,25.9,14.3,28.91,WSW,246,5.5,7.8,60,0.00,,,0.01,proprietary,2013-03-20 01:56:00,
2013-03-19 22:01:00,25.9,14.3,28.92,WNW,303,8.1,12.9,60,0.00,,,0.01,proprietary,2013-03-20 02:01:00,
2013-03-19 22:06:00,26.0,14.3,28.91,West,274,6.8,9.2,60,0.00,,,0.01,proprietary,2013-03-20 02:06:00,
2013-03-19 22:11:00,25.9,14.3,28.91,West,262,7.9,13.8,60,0.00,,,0.01,proprietary,2013-03-20 02:11:00,
2013-03-19 22:17:00,25.9,13.9,28.91,West,275,4.4,6.7,60,0.00,,,0.01,proprietary,2013-03-20 02:17:00,
2013-03-19 22:22:00,25.8,14.0,28.91,West,279,6.3,8.1,60,0.00,,,0.01,proprietary,2013-03-20 02:22:00,
2013-03-19 22:27:00,25.8,13.9,28.91,WNW,292,4.3,7.9,60,0.00,,,0.01,proprietary,2013-03-20 02:27:00,
2013-03-19 22:33:00,25.7,14.2,28.91,West,262,7.8,14.9,61,0.00,,,0.01,proprietary,2013-03-20 02:33:00,
2013-03-19 22:39:00,25.7,14.4,28.92,West,266,5.7,10.6,61,0.00,,,0.01,proprietary,2013-03-20 02:39:00,
2013-03-19 22:44:00,25.7,14.1,28.91,West,262,3.8,6.0,60,0.00,,,0.01,proprietary,2013-03-20 02:44:00,
2013-03-19 22:50:00,25.9,14.2,28.91,West,267,5.2,11.5,60,0.00,,,0.01,proprietary,2013-03-20 02:50:00,
2013-03-19 22:55:00,26.0,14.1,28.91,West,264,9.2,14.1,60,0.00,,,0.01,proprietary,2013-03-20 02:55:00,
2013-03-19 23:00:00,26.1,14.2,28.91,West,268,9.1,16.3,60,0.00,,,0.01,proprietary,2013-03-20 03:00:00,
2013-03-19 23:05:00,26.1,14.2,28.91,West,262,7.0,12.4,60,0.00,,,0.01,proprietary,2013-03-20 03:05:00,
2013-03-19 23:10:00,25.9,14.1,28.91,WSW,248,5.5,7.8,60,0.00,,,0.01,proprietary,2013-03-20 03:10:00,
2013-03-19 23:16:00,25.8,14.3,28.92,West,262,6.0,9.8,61,0.00,,,0.01,proprietary,2013-03-20 03:16:00,
2013-03-19 23:21:00,25.6,14.6,28.92,WNW,286,4.7,9.5,62,0.00,,,0.01,proprietary,2013-03-20 03:21:00,
2013-03-19 23:26:00,25.8,14.4,28.92,WSW,258,7.8,10.7,61,0.00,,,0.01,proprietary,2013-03-20 03:26:00,
2013-03-19 23:31:00,25.9,14.5,28.92,West,262,6.7,10.9,61,0.00,,,0.01,proprietary,2013-03-20 03:31:00,
2013-03-19 23:36:00,26.0,14.5,28.91,WNW,285,2.7,3.5,61,0.00,,,0.01,proprietary,2013-03-20 03:36:00,
2013-03-19 23:41:00,25.9,14.5,28.91,WSW,254,3.6,8.9,61,0.00,,,0.01,proprietary,2013-03-20 03:41:00,
2013-03-19 23:46:00,25.7,14.7,28.91,West,263,7.2,11.1,62,0.00,,,0.01,proprietary,2013-03-20 03:46:00,
2013-03-19 23:51:00,25.7,15.0,28.91,West,273,3.5,6.6,63,0.00,,,0.01,proprietary,2013-03-20 03:51:00,
2013-03-19 23:56:00,25.7,14.9,28.91,West,274,5.1,8.1,63,0.00,,,0.01,proprietary,2013-03-20 03:56:00,